Location: Gleizolles
(44.4833°N, 6.7667°E)
Time: 17:03:41
(UTC+00:00)

Explorer 7 - Pass Details

Date: 21 June 2024
Orbit: 465 x 619 km, 50.3° (Epoch: 12 July)

Event Time Altitude Azimuth Distance (km) Brightness Sun altitude
Rises 12:00:20 0° 258° (WSW) 2,648 10.4 68.3°
Reaches altitude 10° 12:02:38 10° 263° (W) 1,734 9.6 68.2°
Maximum altitude 12:06:28 51° 341° (NNW) 627 7.7 68.0°
Drops below altitude 10° 12:10:09 10° 58° (ENE) 1,663 9.2 67.8°
Sets 12:12:19 0° 64° (ENE) 2,527 10.0 67.6°
